OK2ZAW-23 Weather Reports


time (UTC)temp
C
wind
direction
speed
KPH
gust
KPH
rain 1hr
cm
rain 24hr
cm
rain mn
cm
humidity
%
barometer
mb
20260507185659 13 0 0.0 0.0 0.00 0.00 0.00 60 1011.0
20260507185145 13 0 0.0 0.0 0.00 0.00 0.00 59 1011.0
20260507183604 13 0 0.0 0.0 0.00 0.00 0.00 55 1010.7
20260507183051 14 0 0.0 0.0 0.00 0.00 0.00 54 1010.6
20260507181510 15 0 0.0 0.0 0.00 0.00 0.00 48 1010.4
20260507180956 16 0 0.0 0.0 0.00 0.00 0.00 46 1010.3
20260507180442 16 0 0.0 0.0 0.00 0.00 0.00 44 1010.1
20260507175928 17 0 0.0 0.0 0.00 0.00 0.00 42 1010.0
20260507175414 18 0 0.0 0.0 0.00 0.00 0.00 40 1010.0
20260507173832 18 0 0.0 0.0 0.00 0.00 0.00 40 1009.9
20260507172804 21 0 0.0 0.0 0.00 0.00 0.00 35 1009.8
20260507171736 21 0 0.0 0.0 0.00 0.00 0.00 34 1009.7
20260507170153 21 0 0.0 0.0 0.00 0.00 0.00 35 1009.7
20260507165638 20 0 0.0 0.0 0.00 0.00 0.00 37 1009.6
20260507165124 19 0 0.0 0.0 0.00 0.00 0.00 39 1009.6
20260507164610 18 0 0.0 0.0 0.00 0.00 0.00 42 1009.7
20260507163542 18 0 0.0 0.0 0.00 0.00 0.00 41 1009.6
20260507163028 18 0 0.0 0.0 0.00 0.00 0.00 41 1009.5
20260507162000 20 0 0.0 0.0 0.00 0.00 0.00 38 1009.6
20260507161446 20 0 0.0 0.0 0.00 0.00 0.00 37 1009.6
20260507155903 21 0 0.0 0.0 0.00 0.00 0.00 38 1009.5
20260507153251 20 0 0.0 0.0 0.00 0.00 0.00 41 1009.4
20260507151155 17 0 0.0 0.0 0.00 0.00 0.00 45 1009.6
20260507150641 18 0 0.0 0.0 0.00 0.00 0.00 44 1009.4
20260507145058 21 0 0.0 0.0 0.00 0.00 0.00 37 1009.2
20260507143515 21 0 0.0 0.0 0.00 0.00 0.00 39 1009.2
20260507143001 20 0 0.0 0.0 0.00 0.00 0.00 42 1009.1
20260507141934 18 0 0.0 0.0 0.00 0.00 0.00 44 1009.2
20260507140351 18 0 0.0 0.0 0.00 0.00 0.00 44 1009.4
20260507135323 19 0 0.0 0.0 0.00 0.00 0.00 43 1009.3
20260507133226 19 0 0.0 0.0 0.00 0.00 0.00 42 1009.3
20260507132712 20 0 0.0 0.0 0.00 0.00 0.00 41 1009.4
20260507132158 19 0 0.0 0.0 0.00 0.00 0.00 41 1009.3
20260507131644 19 0 0.0 0.0 0.00 0.00 0.00 41 1009.4
20260507125547 20 0 0.0 0.0 0.00 0.00 0.00 40 1009.4
20260507124005 20 0 0.0 0.0 0.00 0.00 0.00 42 1009.3
20260507123450 20 0 0.0 0.0 0.00 0.00 0.00 41 1009.3
20260507121908 19 0 0.0 0.0 0.00 0.00 0.00 43 1009.4
20260507120326 20 0 0.0 0.0 0.00 0.00 0.00 40 1009.1
20260507114229 19 0 0.0 0.0 0.00 0.00 0.00 43 1009.2
20260507113715 20 0 0.0 0.0 0.00 0.00 0.00 43 1009.4
20260507112647 19 0 0.0 0.0 0.00 0.00 0.00 44 1009.3
20260507111619 19 0 0.0 0.0 0.00 0.00 0.00 45 1009.3
20260507111104 19 0 0.0 0.0 0.00 0.00 0.00 45 1009.4
20260507110036 19 0 0.0 0.0 0.00 0.00 0.00 46 1009.4
20260507105008 18 0 0.0 0.0 0.00 0.00 0.00 46 1009.3
20260507103940 18 0 0.0 0.0 0.00 0.00 0.00 49 1009.4
20260507101844 17 0 0.0 0.0 0.00 0.00 0.00 52 1009.3
20260507101330 17 0 0.0 0.0 0.00 0.00 0.00 53 1009.3
20260507100817 16 0 0.0 0.0 0.00 0.00 0.00 55 1009.2
20260507094721 16 0 0.0 0.0 0.00 0.00 0.00 56 1009.1
20260507091558 16 0 0.0 0.0 0.00 0.00 0.00 58 1009.0
20260507090531 15 0 0.0 0.0 0.00 0.00 0.00 60 1009.0
20260507090017 15 0 0.0 0.0 0.00 0.00 0.00 61 1009.0
20260507085503 15 0 0.0 0.0 0.00 0.00 0.00 61 1008.9
20260507084949 16 0 0.0 0.0 0.00 0.00 0.00 62 1008.9
20260507084436 15 0 0.0 0.0 0.00 0.00 0.00 64 1008.8
20260507083922 15 0 0.0 0.0 0.00 0.00 0.00 64 1008.7
20260507082341 15 0 0.0 0.0 0.00 0.00 0.00 64 1008.7
20260507075733 14 0 0.0 0.0 0.00 0.00 0.00 67 1008.6
20260507075219 14 0 0.0 0.0 0.00 0.00 0.00 69 1008.4
20260507074705 14 0 0.0 0.0 0.00 0.00 0.00 69 1008.5
20260507074152 14 0 0.0 0.0 0.00 0.00 0.00 69 1008.5
20260507073639 14 0 0.0 0.0 0.00 0.00 0.00 68 1008.5
20260507072611 14 0 0.0 0.0 0.00 0.00 0.00 70 1008.3
20260507071544 14 0 0.0 0.0 0.00 0.00 0.00 72 1008.3
20260507070516 14 0 0.0 0.0 0.00 0.00 0.00 72 1008.1
20260507070005 14 0 0.0 0.0 0.00 0.00 0.00 73 1008.1
20260507065451 13 0 0.0 0.0 0.00 0.00 0.00 74 1008.2
20260507064936 13 0 0.0 0.0 0.00 0.00 0.00 75 1008.2
20260507064422 13 0 0.0 0.0 0.00 0.00 0.00 76 1008.2
20260507063355 13 0 0.0 0.0 0.00 0.00 0.00 77 1008.1
20260507062841 13 0 0.0 0.0 0.00 0.00 0.00 78 1008.0
20260507062328 13 0 0.0 0.0 0.00 0.00 0.00 79 1007.9
20260507060233 13 0 0.0 0.0 0.00 0.00 0.00 83 1007.6
20260507055720 13 0 0.0 0.0 0.00 0.00 0.00 86 1007.7
20260507055206 12 0 0.0 0.0 0.00 0.00 0.00 86 1007.7
20260507054140 12 0 0.0 0.0 0.00 0.00 0.00 90 1007.6
20260507053626 12 0 0.0 0.0 0.00 0.00 0.00 91 1007.4
20260507053113 12 0 0.0 0.0 0.00 0.00 0.00 92 1007.4
20260507051019 12 0 0.0 0.0 0.00 0.00 0.00 92 1007.2
20260507044925 12 0 0.0 0.0 0.00 0.00 0.00 92 1006.9
20260507043345 12 0 0.0 0.0 0.00 0.00 0.00 95 1006.8
20260507042831 12 0 0.0 0.0 0.00 0.00 0.00 96 1006.7
20260507041252 11 0 0.0 0.0 0.00 0.00 0.00 98 1006.5
20260507033618 10 0 0.0 0.0 0.00 0.00 0.00 10 1006.0
20260507033105 10 0 0.0 0.0 0.00 0.00 0.00 10 1006.0
20260507032551 10 0 0.0 0.0 0.00 0.00 0.00 10 1006.0
20260507031525 10 0 0.0 0.0 0.00 0.00 0.00 99 1006.0
20260507031012 10 0 0.0 0.0 0.00 0.00 0.00 98 1005.9
20260507030458 10 0 0.0 0.0 0.00 0.00 0.00 98 1005.9
20260507025945 10 0 0.0 0.0 0.00 0.00 0.00 98 1005.9
20260507025432 10 0 0.0 0.0 0.00 0.00 0.00 10 1005.9
20260507024918 10 0 0.0 0.0 0.00 0.00 0.00 98 1005.8
20260507024405 10 0 0.0 0.0 0.00 0.00 0.00 99 1005.8
20260507022825 10 0 0.0 0.0 0.00 0.00 0.00 10 1005.6
20260507022312 10 0 0.0 0.0 0.00 0.00 0.00 10 1005.7
20260507021245 10 0 0.0 0.0 0.00 0.00 0.00 10 1005.7
20260507020219 10 0 0.0 0.0 0.00 0.00 0.00 99 1005.6
20260507015706 10 0 0.0 0.0 0.00 0.00 0.00 99 1005.6
20260507015153 10 0 0.0 0.0 0.00 0.00 0.00 99 1005.4
20260507014639 11 0 0.0 0.0 0.00 0.00 0.00 10 1005.2
20260507014126 11 0 0.0 0.0 0.00 0.00 0.00 10 1005.1
20260507012546 11 0 0.0 0.0 0.00 0.00 0.00 99 1005.0
20260507012032 11 0 0.0 0.0 0.00 0.00 0.00 10 1005.2
20260507011006 11 0 0.0 0.0 0.00 0.00 0.00 10 1005.2
20260507010453 11 0 0.0 0.0 0.00 0.00 0.00 10 1005.2
20260507005939 11 0 0.0 0.0 0.00 0.00 0.00 10 1005.2
20260507005426 11 0 0.0 0.0 0.00 0.00 0.00 10 1005.1
20260507004359 11 0 0.0 0.0 0.00 0.00 0.00 10 1004.9
20260507003846 11 0 0.0 0.0 0.00 0.00 0.00 10 1005.0
20260507003333 11 0 0.0 0.0 0.00 0.00 0.00 10 1004.9
20260507002306 11 0 0.0 0.0 0.00 0.00 0.00 98 1004.9
20260506235700 11 0 0.0 0.0 0.00 0.00 0.00 98 1004.6
20260506234632 11 0 0.0 0.0 0.00 0.00 0.00 96 1004.5
20260506233052 11 0 0.0 0.0 0.00 0.00 0.00 99 1003.7
20260506232539 11 0 0.0 0.0 0.00 0.00 0.00 99 1003.7
20260506232025 11 0 0.0 0.0 0.00 0.00 0.00 10 1003.5
20260506230959 11 0 0.0 0.0 0.00 0.00 0.00 98 1003.4
20260506230445 11 0 0.0 0.0 0.00 0.00 0.00 10 1003.4
20260506225932 11 0 0.0 0.0 0.00 0.00 0.00 99 1003.5
20260506224905 12 0 0.0 0.0 0.00 0.00 0.00 98 1003.5
20260506224352 12 0 0.0 0.0 0.00 0.00 0.00 97 1003.6
20260506223839 12 0 0.0 0.0 0.00 0.00 0.00 97 1003.2
20260506223325 12 0 0.0 0.0 0.00 0.00 0.00 96 1003.2
20260506222811 12 0 0.0 0.0 0.00 0.00 0.00 93 1003.1
20260506221744 12 0 0.0 0.0 0.00 0.00 0.00 91 1003.1
20260506221231 12 0 0.0 0.0 0.00 0.00 0.00 91 1003.1
20260506215650 13 0 0.0 0.0 0.00 0.00 0.00 88 1003.4
20260506215137 13 0 0.0 0.0 0.00 0.00 0.00 85 1003.2
20260506214623 14 0 0.0 0.0 0.00 0.00 0.00 80 1003.1
20260506212529 15 0 0.0 0.0 0.00 0.00 0.00 66 1002.1
20260506212015 15 0 0.0 0.0 0.00 0.00 0.00 66 1002.1
20260506211502 15 0 0.0 0.0 0.00 0.00 0.00 65 1002.0
20260506210434 15 0 0.0 0.0 0.00 0.00 0.00 65 1001.8
20260506205920 15 0 0.0 0.0 0.00 0.00 0.00 65 1001.8
20260506205407 15 0 0.0 0.0 0.00 0.00 0.00 65 1001.8
20260506203826 15 0 0.0 0.0 0.00 0.00 0.00 65 1001.8
20260506203312 15 0 0.0 0.0 0.00 0.00 0.00 65 1001.8
20260506202758 15 0 0.0 0.0 0.00 0.00 0.00 65 1001.7
20260506202245 15 0 0.0 0.0 0.00 0.00 0.00 65 1001.8
20260506200704 15 0 0.0 0.0 0.00 0.00 0.00 66 1001.8
20260506194609 15 0 0.0 0.0 0.00 0.00 0.00 69 1001.9
20260506194055 16 0 0.0 0.0 0.00 0.00 0.00 64 1001.9
20260506193541 16 0 0.0 0.0 0.00 0.00 0.00 65 1001.9
20260506193027 16 0 0.0 0.0 0.00 0.00 0.00 54 1001.8
20260506192513 16 0 0.0 0.0 0.00 0.00 0.00 54 1001.7
20260506192000 17 0 0.0 0.0 0.00 0.00 0.00 53 1001.6
20260506191446 17 0 0.0 0.0 0.00 0.00 0.00 53 1001.6
20260506190932 17 0 0.0 0.0 0.00 0.00 0.00 52 1001.4
20260506190418 17 0 0.0 0.0 0.00 0.00 0.00 52 1001.4